Location: Agendoh
(31.0664°N, 8.9343°W)
Time: 09:03:53
(UTC+00:00)

ATLAS 5 CENTAUR R/B - Pass Details

Date: 06 December 2021
Orbit: 491 x 1165 km, 63.4° (Epoch: 19 January)

Event Time Altitude Azimuth Distance (km) Brightness Sun altitude
Exits shadow 05:33:24 29° 191° (S) 928 2.4 -22.3°
Maximum altitude 05:35:08 65° 117° (ESE) 549 1.4 -22.0°
Drops below altitude 10° 05:38:58 10° 35° (NE) 1,771 4.1 -21.2°
Sets 05:41:16 0° 33° (NNE) 2,730 5.1 -20.7°
